This is the latest recevied weather packets stored in our database for station/object WD4ITN. If no packets are shown the sender has not sent any weather packets the latest 10 day(s).
| Time | Temp. | Humidity | Pressure | Rain* | Wind** | Luminosity | Snow |
|---|---|---|---|---|---|---|---|
| 1777922295 | 20° C | 53% | 1010.3 hPa | 0 mm | - | - | - |
| 1777921999 | 19.44° C | 54% | 1010.4 hPa | 0 mm | - | - | - |
| 1777921717 | 19.44° C | 53% | 1010.5 hPa | 0 mm | - | - | - |
| 1777921410 | 18.89° C | 57% | 1010.7 hPa | 0 mm | - | - | - |
| 1777921107 | 18.89° C | 54% | 1010.8 hPa | 0 mm | - | - | - |
| 1777920803 | 18.33° C | 57% | 1010.8 hPa | 0 mm | - | - | - |
| 1777920509 | 18.89° C | 54% | 1010.9 hPa | 0 mm | - | - | - |
| 1777920218 | 18.33° C | 58% | 1010.9 hPa | 0 mm | - | - | - |
| 1777919894 | 17.78° C | 54% | 1011 hPa | 0 mm | - | - | - |
| 1777919612 | 17.78° C | 55% | 1011.1 hPa | 0 mm | - | - | - |
| 1777919304 | 18.33° C | 56% | 1011.3 hPa | 0 mm | - | - | - |
| 1777919004 | 18.33° C | 56% | 1011.2 hPa | 0 mm | - | - | - |
| 1777918701 | 17.78° C | 57% | 1011.3 hPa | 0 mm | - | - | - |
| 1777918419 | 17.22° C | 57% | 1011.3 hPa | 0 mm | - | - | - |
| 1777918094 | 17.78° C | 56% | 1011.4 hPa | 0 mm | - | - | - |
| 1777917812 | 17.78° C | 57% | 1011.4 hPa | 0 mm | - | - | - |
| 1777917502 | 17.78° C | 57% | 1011.4 hPa | 0 mm | - | - | - |
| 1777917200 | 17.78° C | 57% | 1011.4 hPa | 0 mm | - | - | - |
| 1777916898 | 17.22° C | 58% | 1011.5 hPa | 0 mm | - | - | - |
| 1777916618 | 17.22° C | 59% | 1011.5 hPa | 0 mm | - | - | - |
| 1777916306 | 17.22° C | 57% | 1011.6 hPa | 0 mm | - | - | - |
| 1777916007 | 17.22° C | 58% | 1011.7 hPa | 0 mm | - | - | - |
| 1777915696 | 17.22° C | 55% | 1011.7 hPa | 0 mm | - | - | - |
| 1777915397 | 17.22° C | 57% | 1011.7 hPa | 0 mm | - | - | - |
| 1777915095 | 17.22° C | 55% | 1011.7 hPa | 0 mm | - | - | - |
* Rain since midnight (hover to see other rain measurements)
** Current wind speed in m/s (hover to see current wind gust speed)